Location: ČR
(50.0000°N, 15.0000°E)
Time: 15:48:36
(UTC+00:00)

X-37B - Visible Passes

Search period start: 25 September 2021 00:00
Search period end: 05 October 2021 00:00
Orbit: 381 x 393 km, 45.0° (Epoch: 29 August)

Date Brightness Start Highest point End Pass type
(mag) Time Alt. Az. Time Alt. Az. Time Alt. Az.
25 Sep 2.1 03:40:29 15° SW 03:42:24 26° SSE 03:45:08 10° ESE visible
26 Sep 2.6 02:44:46 20° SE 02:44:46 20° SE 02:46:40 10° ESE visible
26 Sep 1.8 04:17:28 10° WSW 04:20:21 33° S 04:23:15 10° ESE visible
27 Sep 1.7 03:21:20 27° SSW 03:22:07 31° S 03:24:57 10° ESE visible
28 Sep 3.2 02:25:37 16° ESE 02:25:37 16° ESE 02:26:35 10° ESE visible
28 Sep 1.7 03:57:54 15° WSW 04:00:06 31° S 04:02:57 10° ESE visible
29 Sep 1.8 03:02:12 31° SSE 03:02:12 31° SSE 03:04:43 10° ESE visible
30 Sep 1.8 03:38:49 23° SW 03:39:48 27° SSW 03:42:33 10° SE visible
01 Oct 2.8 02:43:12 19° SE 02:43:12 19° SE 02:44:25 10° ESE visible
01 Oct 2.6 04:15:34 10° WSW 04:17:39 16° SSW 04:19:45 10° SSE visible
02 Oct 2.3 03:19:58 21° S 03:19:58 21° S 03:22:00 10° SE visible
03 Oct 2.9 03:56:49 11° SW 03:57:14 11° SSW 03:58:19 10° S visible
